RUBIN 9.1/RUBIN 9.2/PSLV

Satellite information

Favourite Embed

Satellite Type and Status

PAYLOADIN ORBIT

Key statistics

Satellite RUBIN 9.1/RUBIN 9.2/PSLV at a glance.

Uptime

5925

Days in orbit

Revolutions

≈ 14.4

Per day

Orbit

SSO

Sun Synchronous Orbit

Inclination

98.3

Latest

Satellite identification and parameters

Extended collection of information and parameters for RUBIN 9.1/RUBIN 9.2/PSLV.

Object identification

Identified? True

Debris? False

Object name: RUBIN 9.1/RUBIN 9.2/PSLV

International designator: 2009-051F

Object number (NORAD): 35936

Object ID (CCSDS): 35936

Country: GERMANY (GER)

Current information (Y/N): Y

RCS size: LARGE

Orbital parameters

Period: 99.762 minutes

Inclination: 98.3012 deg

SMA: 7125.284 km

Apoapsis: 784.448 km

Periapsis: 709.851 km

RAAN: 269.0579 deg

Eccentricy: 0.00523468

Argument of periapsis: 266.3742 deg

Mean anomaly: 93.1462 deg

Mean motion: 14.43442408 rev/day

Mean motion (dot): 0.00000505 rev/day2

B* drag term: 0.00015982133 1/REarth

Two-line elements (TLE)

Creation date: Dec. 12, 2025, 10:14 a.m.

Reference frame: TEME

Reference center: EARTH

Epoch: Dec. 12, 2025, 7:04 a.m. UTC

TLE line 0: 0 RUBIN 9.1/RUBIN 9.2/PSLV

TLE line 1: 1 35936U 09051F 25346.29476929 .00000505 00000-0 15982-3 0 9997

TLE line 2: 2 35936 98.3012 269.0579 0052347 266.3742 93.1462 14.43442408853577

Live tracking on map

Real-time ground track for satellite RUBIN 9.1/RUBIN 9.2/PSLV.

In-orbit conjunctions

A list of the most updated potential collisions computed for object RUBIN 9.1/RUBIN 9.2/PSLV.

Target Orbit TCA Probability of collision Miss distance Type
COSMOS 2251 DEB LEO 2025-10-26 00:10:25 0.000120825 514.0 (m) DEBRIS
FENGYUN 1C DEB SSO 2025-09-23 00:53:36 0.0001401084 279.0 (m) DEBRIS
CZ-6A DEB LEO 2025-08-05 22:09:32 0.001007853 131.0 (m) DEBRIS
COSMOS 2251 DEB LEO 2025-05-17 04:39:01 0.001227162 106.0 (m) DEBRIS
NOAA 16 DEB SSO 2025-05-05 08:47:48 0.0001245738 522.0 (m) DEBRIS

Associated space launch

Oceansat-2 is an earth observation and oceanography satellite operated by ISRO.

RUBIN 9.1/RUBIN 9.2/PSLV was lifted into orbit during the mission ‘PSLV | Oceansat-2’, on board a PSLV space rocket.

The launch took place on Sept. 23, 2009, 6:21 a.m. from Satish Dhawan Space Centre First Launch Pad.

For more information about the launch, click the button.

Launch to space PSLV | Oceansat-2
PSLV | Oceansat-2

Agency: N/A

Status: Launch Successful

Launch date: Sept. 23, 2009, 6:21 a.m. UTC

Rocket: PSLV

Launch pad: Satish Dhawan Space Centre First Launch Pad

Location: Satish Dhawan Space Centre, India

...

Latest news about this satellite

There are no fresh news available about this satellite. Check back as we update our databases every day.


Newsletter sign-up

Weekly statistics, charts and insights to help you stay on top of the space industry.